Wind_Speed
5 1 10 8 7 3 1 2 4 1 6 21 25 25 27 28 26 29 30 27 26 19 28 32 32 32 31 32 29 32 33 32 29 21 20 22 23 27 30 28 27 29 28
5 7 9 9 10 7 2 3 4 8 8 7 5 13 23 27 32 28 28 27 27 28 17 27 32 34 34 33 33 32 32 33 29 17 4 2 9 26 31 30 32 32 31
7 5 12 14 11 9 8 6 6 9 11 11 11 10 5 9 13 23 25 25 25 24 28 24 21 32 33 36 33 34 35 27 29 33 15 2 6 4 24 38 36 36 34
6 6 9 11 9 7 5 5 6 6 7 8 11 11 10 10 10 10 17 23 21 21 19 19 24 29 30 33 36 37 36 35 24 29 34 21 4 4 2 13 32 37 35
7 7 8 9 7 5 5 6 5 5 6 7 7 7 9 11 12 14 13 11 15 20 20 19 20 22 22 29 30 31 31 36 31 29 26 30 22 11 3 4 6 25 36
7 7 9 10 7 6 6 7 8 7 7 7 5 6 8 9 10 11 13 14 11 10 13 17 21 22 22 22 24 27 28 28 30 28 31 26 18 24 10 4 4 5 14
7 6 6 6 5 6 7 7 8 8 7 7 6 7 7 6 6 8 9 9 8 7 7 7 9 17 22 22 22 24 26 29 29 29 30 32 30 28 25 19 5 4 6
6 7 7 7 6 6 7 7 8 9 10 10 10 10 9 8 8 8 8 8 7 7 7 8 8 7 9 15 14 19 21 24 27 31 27 31 33 33 28 26 18 3 5
7 7 8 7 7 6 6 6 7 9 10 11 11 11 9 8 8 7 6 7 8 10 11 11 10 7 6 9 12 13 17 19 22 26 28 25 28 32 33 29 26 20 7
7 5 7 7 7 7 6 7 8 9 8 10 10 9 8 7 6 6 7 9 10 10 11 11 10 9 7 7 8 10 16 17 19 20 21 21 20 19 23 24 20 14 7
7 6 7 6 7 8 8 8 8 8 8 8 7 6 7 7 7 6 7 8 8 9 11 12 12 10 10 9 11 12 14 17 18 18 18 15 11 10 10 11 11 9 7
7 6 6 6 8 10 9 9 7 7 7 5 5 7 7 7 8 8 8 8 8 8 9 9 9 9 10 10 10 9 9 8 7 8 7 5 6 7 7 7 6 7 7
7 5 4 5 10 10 9 8 7 6 6 6 7 8 9 9 10 9 9 9 8 7 7 7 7 7 7 7 6 6 6 6 6 6 6 5 2 2 2 3 5 6 6
7 5 4 6 10 10 8 7 6 6 5 6 7 9 9 10 10 11 11 10 11 11 11 11 10 10 10 8 8 8 7 7 8 8 9 7 6 3 4 4 6 7 7
6 6 5 5 8 10 9 8 6 6 5 7 7 8 8 10 10 10 10 11 12 14 15 15 16 16 17 13 10 11 12 13 14 14 16 16 13 9 7 5 6 6 7
6 6 6 7 9 9 9 9 8 8 9 9 9 7 9 9 10 10 11 12 13 15 17 19 20 20 19 16 16 15 17 16 16 16 15 13 13 14 12 10 9 8 5
6 6 6 9 10 9 10 9 9 7 6 7 7 8 8 10 10 10 12 14 15 16 19 19 20 20 18 15 14 13 15 14 13 11 10 9 8 6 6 5 5 3 3
6 6 9 11 9 10 11 10 8 7 6 7 8 8 9 11 11 12 12 12 14 16 16 16 17 17 15 14 13 12 12 13 13 12 12 10 9 9 7 5 6 4 3
6 9 12 12 10 10 11 9 8 8 8 8 10 10 11 12 11 12 11 12 14 15 16 17 16 15 13 11 11 11 11 11 11 10 10 8 9 7 6 4 3 2 3
12 13 11 9 9 8 11 11 9 9 9 9 11 13 13 12 11 10 10 12 13 17 15 14 12 12 13 11 9 7 7 8 7 6 6 7 6 5 6 7 4 3 3
10 13 11 9 10 11 13 11 8 8 10 12 13 13 12 12 11 11 10 14 12 10 10 9 8 9 8 9 9 9 8 6 5 4 4 4 5 6 6 6 5 3 6
12 12 14 12 10 11 11 9 10 11 12 14 14 14 14 12 10 9 10 8 7 6 5 4 4 4 4 5 7 8 7 7 4 4 5 6 6 7 6 5 3 4 4
10 12 15 14 11 10 11 15 14 14 14 15 14 13 12 11 9 8 5 4 4 4 3 3 1 1 1 2 4 6 5 6 4 6 7 8 8 9 8 4 5 3 2
14 13 17 15 13 11 12 14 16 17 16 15 14 13 12 10 8 7 5 6 5 4 4 3 2 2 2 1 5 5 5 6 8 9 11 7 7 6 6 5 4 3 4
17 18 19 15 15 16 16 17 19 20 17 16 14 13 12 11 10 7 5 6 4 4 5 4 3 3 3 3 4 6 7 8 9 10 10 8 7 8 7 5 4 4 4
18 19 17 17 18 19 20 20 21 20 20 16 16 15 14 13 10 8 5 4 4 3 2 2 2 2 4 5 6 6 7 8 9 9 8 8 9 8 8 8 9 8 7
Wind_Direction
259 87 110 116 130 101 88 265 296 290 206 223 222 226 230 238 238 233 235 234 232 239 238 237 237 236 234 235 237 235 232 230 229 214 224 233 237 232 236 235 231 230 232
86 81 84 77 73 71 31 317 286 267 270 268 233 223 236 243 248 251 247 247 251 252 250 245 243 240 237 238 238 238 229 230 221 204 168 230 248 235 233 232 233 231 230
124 103 86 84 67 46 27 5 335 296 277 278 269 268 282 251 254 250 254 256 263 266 262 247 246 245 242 238 240 241 238 232 224 215 196 147 225 213 232 232 232 232 229
120 110 99 89 73 52 26 11 16 2 350 312 285 285 288 284 274 281 271 272 273 267 260 265 260 261 255 249 246 244 245 242 228 226 222 229 179 195 281 237 233 231 233
128 113 97 103 91 64 30 0 344 358 354 347 354 329 297 289 284 283 290 295 277 268 267 263 262 262 268 263 251 248 248 244 234 225 225 229 228 233 181 258 258 230 230
121 112 100 108 92 59 34 15 6 358 359 4 348 335 327 323 316 312 304 295 307 307 277 271 271 269 265 269 268 267 267 259 249 238 229 221 220 228 223 230 231 241 221
127 121 110 97 79 66 41 27 24 26 19 11 13 6 359 338 334 357 4 360 351 344 347 315 288 282 275 273 272 273 272 273 269 255 246 235 233 231 216 220 212 197 201
147 147 146 129 99 84 50 38 40 46 39 40 42 43 44 44 36 19 10 8 5 355 332 320 323 297 285 282 276 276 283 283 281 279 262 248 238 238 236 225 205 202 208
159 153 136 128 111 100 68 56 55 54 44 40 40 45 44 36 34 32 6 347 331 327 319 321 325 328 302 279 285 278 292 293 289 286 283 267 247 244 240 243 227 214 219
155 141 131 131 121 119 96 82 69 57 41 41 46 40 31 22 15 360 358 351 344 336 325 322 326 326 317 309 301 297 279 287 293 293 289 269 247 241 236 241 241 231 274
151 139 132 125 132 118 101 82 66 48 44 44 35 16 13 5 358 0 360 359 349 346 338 337 336 345 349 333 325 318 303 297 292 289 286 273 258 241 238 237 235 231 220
152 143 137 134 137 118 99 84 65 55 50 42 21 22 13 11 17 18 18 18 14 6 4 6 4 352 351 335 328 325 328 320 312 308 293 285 291 262 249 244 243 231 210
139 129 114 135 136 121 106 93 75 64 59 45 46 42 36 32 32 28 28 32 35 41 34 23 22 14 12 13 10 6 2 2 5 9 7 355 341 307 255 203 175 170 166
152 142 120 133 144 135 124 116 95 76 73 58 57 52 44 37 39 40 44 49 50 58 59 59 58 55 53 52 54 64 71 69 61 59 54 46 45 73 107 115 128 121 110
159 157 154 148 154 134 129 124 102 82 87 87 75 63 52 57 55 53 52 63 70 76 77 78 71 64 57 54 65 74 78 80 84 83 82 68 64 62 69 90 90 95 96
167 162 163 155 143 140 134 130 118 111 113 95 82 64 66 71 69 72 76 86 91 92 92 87 80 71 66 66 72 85 91 95 93 91 92 95 91 86 75 66 61 56 79
170 169 171 156 149 148 148 134 128 119 107 96 81 69 80 88 87 92 98 98 95 93 87 85 81 79 74 72 76 87 93 92 90 88 83 83 87 82 78 86 89 79 67
158 162 155 149 146 145 140 134 132 115 119 112 98 98 100 99 106 110 106 107 102 95 94 90 89 85 76 77 79 83 85 85 81 76 69 65 56 53 42 29 34 41 34
135 153 157 151 145 143 145 134 118 124 122 114 113 116 119 117 124 117 116 111 103 100 92 89 89 84 77 71 70 70 73 73 68 67 58 51 51 40 28 356 8 2 81
147 149 152 153 152 148 150 132 132 137 132 134 131 128 125 132 132 130 126 117 105 102 95 92 85 80 77 63 63 60 60 64 57 57 61 47 41 26 7 353 340 324 297
139 153 152 159 161 157 153 134 150 159 150 145 135 136 143 146 148 142 126 114 109 110 109 103 88 72 66 63 55 50 50 43 44 28 8 12 4 348 339 333 321 320 313
158 163 153 148 154 157 158 157 169 167 156 145 147 154 157 161 157 139 126 123 124 125 128 120 94 72 62 44 46 41 39 23 22 10 338 327 333 335 332 324 331 317 301
179 173 163 151 154 162 170 167 174 165 158 158 160 165 167 164 157 155 158 180 196 195 188 192 157 35 9 44 39 30 12 10 344 349 338 321 324 333 340 326 322 322 359
187 178 166 164 168 176 179 184 179 173 173 175 174 173 173 173 175 174 170 180 182 194 205 216 228 247 238 314 336 346 344 331 327 328 330 327 319 319 325 320 343 338 334
193 189 181 177 182 187 189 188 184 182 186 186 184 184 184 186 180 178 187 196 201 214 219 236 241 254 267 314 330 340 339 340 335 320 335 342 343 341 340 340 337 334 334
199 195 190 189 191 189 192 197 195 194 194 199 192 192 194 194 195 194 172 181 195 205 213 235 270 281 297 295 304 316 320 321 324 316 331 336 334 335 330 326 324 321 319
Height
788 789 791 792 794 795 797 799 799 802 805 805 805 806 807 807 808 810 811 812 814 815 816 816 818 819 820 821 823 824 825 825 826 829 830 830 831 831 831 832 832 832 831
791 791 791 792 793 795 796 797 798 799 800 801 803 804 803 803 804 804 806 808 809 811 811 812 812 814 815 816 818 819 819 819 822 824 826 829 828 824 824 826 826 827 828
792 793 792 793 794 795 796 797 798 798 798 799 799 799 800 800 800 800 802 803 805 805 805 807 807 808 810 810 811 813 814 813 816 816 819 828 823 818 815 816 817 819 821
792 792 793 794 795 796 797 798 798 798 798 797 796 797 797 798 798 799 800 800 800 800 801 801 802 804 805 805 806 806 808 809 810 813 812 811 811 814 814 810 809 812 816
790 792 792 793 796 797 798 798 798 798 797 796 795 794 795 795 796 796 795 796 795 796 796 797 798 799 799 800 801 802 802 802 803 802 804 804 806 808 810 809 806 806 807
792 792 793 795 797 798 798 798 797 796 796 796 794 794 793 793 792 792 791 791 792 792 792 792 793 794 794 795 796 797 798 798 798 797 798 797 799 800 805 805 804 805 805
792 793 794 796 797 798 798 798 797 796 795 795 794 793 792 791 791 790 789 789 788 789 789 789 789 789 790 790 791 792 792 793 792 793 792 792 792 791 789 796 801 800 801
790 792 793 795 796 797 797 797 797 796 795 794 793 792 791 791 790 790 789 789 789 788 787 786 785 785 786 787 787 787 788 788 787 786 787 786 786 787 786 785 786 797 796
790 791 793 794 795 797 797 797 797 796 795 793 793 792 791 789 789 788 788 788 787 787 786 784 783 783 783 783 784 784 784 784 783 782 781 781 780 780 781 783 768 775 777
789 791 792 794 795 796 797 797 797 795 795 794 793 792 791 790 790 788 787 787 786 785 784 783 781 781 781 780 781 780 780 781 780 779 777 776 776 776 775 774 776 774 779
790 791 792 793 794 795 796 797 796 796 795 795 794 793 791 790 790 788 787 786 785 784 783 782 781 780 780 778 779 778 778 778 777 777 776 774 774 774 775 775 775 777 779
788 790 791 792 794 795 796 796 797 797 796 796 794 794 793 792 790 789 788 786 785 784 783 783 781 780 778 778 778 777 778 777 776 776 776 775 775 775 775 775 776 777 777
787 789 790 792 793 795 796 797 798 798 797 796 795 795 794 793 791 791 788 787 786 784 782 781 781 781 779 778 778 777 777 777 777 776 776 776 775 776 776 776 776 778 778
785 788 790 792 793 794 795 797 798 798 797 797 797 796 796 794 793 791 789 788 787 784 783 783 784 783 781 779 779 777 777 777 778 778 778 778 778 779 779 780 781 780 782
785 787 790 792 793 794 795 797 798 798 798 798 798 797 796 794 793 792 791 789 789 789 788 788 787 785 783 782 781 780 781 781 781 781 780 781 783 786 786 785 785 785 785
784 787 789 791 793 794 795 797 798 798 799 798 797 796 795 794 794 794 793 794 794 792 790 790 790 788 787 787 785 785 785 786 786 786 786 786 786 788 789 789 790 790 788
784 786 787 789 792 793 795 796 797 797 797 797 796 796 797 796 796 796 798 798 796 795 794 795 794 793 793 793 792 791 791 791 791 790 790 790 790 790 791 792 790 791 790
782 785 787 789 791 793 794 795 796 795 796 796 796 796 797 798 800 800 800 800 798 797 799 799 798 798 798 798 796 795 795 794 794 794 793 793 792 792 793 793 792 792 792
780 783 786 788 790 791 792 793 794 795 796 796 796 796 799 800 803 801 803 802 800 800 800 801 802 802 801 801 799 799 798 797 796 795 795 794 794 795 795 793 792 792 793
780 783 785 786 787 788 791 793 794 795 796 797 797 797 799 803 805 804 805 805 803 803 804 805 805 804 803 804 803 801 799 798 797 797 796 796 796 796 795 794 793 793 793
779 781 783 785 786 788 789 792 795 796 796 796 796 798 802 805 806 806 806 806 806 806 807 807 807 805 806 805 804 802 800 798 798 797 797 796 796 795 794 794 793 793 793
778 780 782 783 786 786 787 792 796 796 796 795 798 801 804 805 806 807 807 807 808 808 809 808 807 806 807 806 804 803 801 799 798 798 797 796 795 794 794 793 792 792 791
776 778 779 782 784 786 788 791 794 795 796 798 800 802 804 805 805 806 806 807 808 808 808 808 807 807 807 805 804 803 801 800 798 798 796 795 794 792 791 790 790 790 789
774 776 778 781 783 785 787 790 793 794 796 798 800 801 803 804 805 805 805 806 806 807 807 807 806 807 806 804 803 802 800 799 798 797 795 793 792 791 790 789 788 788 787
770 773 774 776 779 783 785 788 791 793 795 797 798 800 802 803 803 804 804 804 805 805 805 805 805 805 804 803 803 801 800 798 797 795 794 792 791 790 789 788 787 786 785
766 768 771 772 777 780 782 786 788 791 793 794 795 797 800 801 801 802 803 804 804 803 803 803 804 803 803 802 801 800 799 797 796 794 793 792 790 789 787 786 786 785 784